Location: Bleiki
(46.9346°N, 8.4312°E)
Time: 16:21:46
(UTC+00:00)

Daily predictions for brighter satellites

Satellite Brightness Start Highest point End
(mag) Time Altitude Azimuth Time Altitude Azimuth Time Altitude Azimuth
Cosmos 1980 Rocket 3.7 16:05:35 10° N 16:09:03 16° NE 16:12:30 10° ENE
Cosmos 1656 4.1 16:04:12 10° NNW 16:09:25 41° NE 16:14:41 10° SE
SL-08 R/B 3.3 16:06:43 10° NNE 16:11:30 76° ESE 16:16:09 10° S
NOSS 2-1 (C) 3.2 16:11:37 10° SW 16:14:51 62° NW 16:18:09 10° NE
SeaSat 1 4.4 16:12:19 10° N 16:16:05 22° NW 16:19:52 10° W
SMAP 3.4 16:12:15 10° SE 16:16:39 44° ENE 16:21:05 10° N
NOSS 3-1 (A) 4.3 16:09:44 10° NW 16:16:43 48° NE 16:24:53 10° ESE
Cosmos 1461 4.0 16:14:32 10° WSW 16:18:31 39° NW 16:22:22 10° NNE
NOSS 3-1 (C) 4.1 16:12:08 10° NW 16:19:27 68° NE 16:28:05 10° SE
USA 234 3.4 16:13:21 10° SE 16:19:55 87° SW 16:26:29 10° NW
CZ-4B R/B 2.9 16:19:30 10° SSE 16:23:39 83° ENE 16:27:38 10° NNW
NOSS 2-1 (D) 3.5 16:21:02 10° WSW 16:24:12 49° NW 16:27:28 10° NNE
Cosmos 44 3.3 16:19:57 10° NNW 16:24:44 56° NE 16:29:12 10° SE
ERBS 2.2 16:21:58 10° SW 16:25:10 82° NW 16:28:20 10° NE
Okean O Rocket 3.1 16:22:57 10° E 16:25:51 17° ENE 16:28:44 10° NNE
CZ-4C R/B 4.2 16:22:31 10° N 16:26:24 50° WNW 16:30:04 10° SSW
Cosmos 2084 4.3 16:23:02 10° NNW 16:26:52 31° NE 16:30:50 10° ESE
USA 305 3.4 16:25:12 10° W 16:29:19 50° NNW 16:33:16 11° NE
Cosmos 1340 Rocket 3.3 16:26:05 10° N 16:29:56 39° ENE 16:33:46 10° SE
CZ-4C R/B 3.7 16:25:40 10° NNW 16:31:20 28° NNE 16:37:51 10° E
Cosmos 1408 Rocket 3.5 16:31:31 10° N 16:35:53 72° E 16:40:13 10° SSE
Lacrosse 5 rocket 3.0 16:33:48 10° NW 16:36:33 18° N 16:39:07 11° NE
Cosmos 1464 Rocket 4.0 16:31:07 10° S 16:37:28 82° E 16:43:53 10° N
PAYLOAD B 4.5 16:34:23 10° SE 16:39:44 47° ENE 16:45:05 10° N
Cosmos 1743 Rocket 3.8 16:36:54 10° N 16:41:04 44° ENE 16:45:12 10° SSE
CORIOLIS 4.1 16:35:56 10° SSE 16:41:16 68° ENE 16:46:40 10° N
Cosmos 1898 Rocket 3.9 16:38:12 10° N 16:43:12 41° ENE 16:48:07 10° SE
Cosmos 1933 4.2 16:41:50 10° SSE 16:45:21 29° E 16:48:53 10° NNE
Cosmos 468 Rocket 4.4 16:43:11 10° S 16:47:57 40° ESE 16:52:39 11° NE
H-2A R/B 2.2 16:43:25 10° SE 16:48:24 47° ENE 16:53:17 10° N
CZ-2D R/B 3.5 16:46:22 10° SE 16:50:04 46° ENE 16:53:45 10° N
Nadezhda 4 Rocket 4.0 16:45:01 10° N 16:51:22 84° E 16:57:42 10° S
Cosmos 1833 Rocket 3.3 16:46:34 10° S 16:51:40 37° ESE 16:56:02 14° NE
Cosmos 540 Rocket 4.4 16:48:02 10° SSE 16:52:13 26° E 16:55:06 16° NE
Meteor 1-20 Rocket 4.3 16:48:15 10° N 16:54:01 61° ENE 16:59:47 10° SSE
Cosmos 2360 4.5 16:52:19 10° NNW 16:57:52 47° NE 17:03:21 10° SE
ISS -2.8 16:54:56 10° WNW 16:58:07 35° N 16:59:39 23° NE
ARGOS 3.6 16:54:11 10° SE 16:59:09 38° ENE 17:04:06 10° N
CZ-4B R/B 3.4 16:54:51 10° SE 17:00:03 48° ENE 17:05:11 10° N
USA 306 3.8 16:57:21 10° W 17:01:22 39° NNW 17:03:56 19° NE
SKYMED 2 4.3 16:58:54 15° NE 17:01:58 32° E 17:05:52 10° SSE
Cosmos 1092 Rocket 4.0 16:56:29 10° N 17:02:48 62° ENE 17:09:04 10° SSE
Cosmos 1606 3.9 17:00:03 10° SSW 17:03:38 42° WNW 17:07:16 10° N
SJ 16-02 3.4 17:01:04 10° NW 17:04:55 31° W 17:08:45 10° SSW
PSLV R/B 3.5 17:01:37 10° SSE 17:05:17 82° ENE 17:09:01 10° NNW
ATLAS CENTAUR R/B 3.2 16:56:08 10° SW 17:06:35 61° SE 17:09:32 23° ENE
AQUARIUS 4.5 17:04:13 10° S 17:08:41 69° WSW 17:13:12 10° NNW
Cosmos 1500 Rocket 3.6 17:06:40 10° N 17:11:09 85° W 17:15:34 10° S
Cosmos 1428 Rocket 4.4 17:07:19 10° N 17:13:25 64° E 17:19:30 10° SSE
Cosmos 1939 Rocket 4.2 17:10:45 10° S 17:14:41 43° W 17:18:38 10° NNW
MOS 1-B Rocket 4.0 17:12:18 10° NNE 17:18:01 64° ESE 17:24:25 10° S
USA 307 3.9 17:14:22 10° W 17:18:22 37° NNW 17:20:14 25° NE
CZ-2C R/B 2.7 17:14:36 10° NNE 17:19:42 51° E 17:24:43 10° S
USA 276 2.0 17:17:51 10° WNW 17:20:59 82° SSW 17:21:52 43° ESE
Cosmos 1627 Rocket 4.4 17:15:04 10° N 17:21:17 72° E 17:27:24 10° SSE
Cosmos 2034 Rocket 4.3 17:15:34 10° SSW 17:21:41 69° W 17:27:51 10° N
Cosmos 1805 Rocket 3.4 17:17:51 10° N 17:22:12 75° E 17:26:31 10° SSE
Cosmos 1500 3.3 17:19:15 10° N 17:22:54 47° ENE 17:26:30 10° SSE
NOSS 2-2 (C) 4.5 17:19:16 10° NNW 17:24:03 47° NE 17:27:58 22° ESE
Cosmos 2360 Rocket 4.3 17:25:29 10° NNE 17:26:02 10° NNE 17:26:02 10° NNE
Cosmos 1763 Rocket 3.4 17:22:45 10° SSW 17:27:49 90° ESE 17:31:56 16° NNE
ATLAS CENTAUR R/B 3.7 17:25:13 10° WNW 17:28:14 18° NNW 17:31:11 11° NNE
COSMOS 2455 3.3 17:23:05 10° S 17:28:34 39° ESE 17:30:31 30° ENE
USA 267 3.8 17:24:23 20° NE 17:28:47 50° NNW 17:35:01 10° W
Cosmos 1937 Rocket 3.4 17:24:17 10° NNW 17:29:36 70° ENE 17:34:55 10° SSE
Cosmos 841 Rocket 3.8 17:25:35 10° S 17:30:27 43° ESE 17:32:02 34° ENE
Sich 1 2.8 17:26:26 10° N 17:30:44 72° E 17:35:00 10° SSE
Cosmos 2279 Rocket 4.1 17:28:47 10° SSE 17:34:43 49° E 17:40:39 10° NNE
CZ-4 R/B 4.3 17:31:24 10° SSE 17:35:29 68° ENE 17:39:37 10° N
Meteor 1-25 Rocket 4.5 17:30:21 10° NNW 17:35:53 70° W 17:41:26 10° S
Landsat 5 3.5 17:35:36 45° ENE 17:36:18 51° E 17:40:15 10° S
GEOS 3 Rocket 3.5 17:33:05 19° SE 17:36:49 70° NE 17:42:00 10° NW
YAOGAN 3 4.4 17:35:16 10° SSE 17:39:36 80° ENE 17:44:00 10° N
USA 308 3.9 17:36:54 10° WNW 17:40:48 33° N 17:41:37 30° NNE
Meteor 1-5 Rocket 4.4 17:38:02 10° N 17:43:55 55° ENE 17:49:44 10° SSE
USA 229 DEB 4.0 17:37:16 10° NW 17:44:36 79° SW 17:52:25 10° SSE
Cosmos 2322 Rocket 3.9 17:40:46 10° N 17:43:06 17° NNE 17:43:06 17° NNE
USA 229 4.0 17:37:21 10° NW 17:44:43 79° SW 17:52:30 10° SSE
ATLAS 5 CENTAUR R/B 2.8 17:38:59 10° NW 17:46:06 37° NNE 17:46:14 37° NNE
Cosmos 1634 Rocket 4.0 17:39:51 10° S 17:46:11 89° E 17:52:34 10° N
Cosmos 2369 3.6 17:40:36 10° NNW 17:46:22 75° ENE 17:51:47 12° SSE
deb Chang Zheng 4 3.8 17:44:39 10° S 17:48:56 68° WSW 17:53:15 10° NNW
Meteor 2-16 Rocket 4.3 17:43:39 10° N 17:49:46 67° E 17:55:50 10° SSE
COSMO-SKYMED 1 2.5 17:47:31 23° N 17:50:11 82° WNW 17:54:31 10° SSW
Cosmos 1697 Rocket 2.9 17:46:02 10° NNW 17:51:38 70° WSW 17:57:12 10° SSE
ATLAS 2AS CENTAUR R/B 4.4 17:47:07 10° WNW 17:52:57 23° N 17:56:25 17° NNE
Cosmos 372 Rocket 3.8 17:48:12 10° NNW 17:53:26 72° ENE 17:56:21 27° SE
Cosmos 1980 Rocket 2.1 17:48:30 10° NNW 17:54:11 69° ENE 17:56:40 34° SE
Cosmos 1655 Rocket 4.3 17:48:48 10° N 17:54:55 44° ENE 17:55:29 43° E
Cosmos 1782 3.0 17:51:32 10° SSW 17:55:30 70° W 17:57:00 36° N
CZ-4 R/B 3.8 18:00:14 12° N 18:00:14 12° N 18:00:36 10° N
Cosmos 2026 Rocket 4.3 17:52:25 10° NNW 17:58:31 64° W 18:04:30 10° S
Cosmos 1812 3.8 17:55:11 10° S 17:57:28 34° S 17:57:28 34° S
SL-16 R/B 3.6 17:55:03 10° N 17:57:57 22° NNE 17:57:57 22° NNE
Cosmos 1818 4.5 17:56:02 10° NNW 18:00:10 33° NNE 18:00:10 33° NNE
ERBS 4.5 17:59:04 10° WNW 18:00:55 19° NNW 18:00:55 19° NNW
Okean O Rocket 2.1 17:57:20 10° S 18:01:44 61° WSW 18:06:10 10° NNW
Cosmos 2082 Rocket 2.1 17:58:53 10° SSW 18:04:30 65° ESE 18:05:10 59° ENE
YAOGAN 1 4.1 18:07:40 25° N 18:07:40 25° N 18:09:31 10° N
SL-08 RB Rocket 3.7 18:02:05 10° SSE 18:06:45 82° WSW 18:11:25 10° NNW
USA 305 4.2 18:06:03 10° WNW 18:09:15 30° NNW 18:09:15 30° NNW
Cosmos 2278 3.6 18:06:19 10° NNW 18:12:03 69° ENE 18:12:17 68° ENE
COSMOS 2406 3.4 18:07:21 10° SW 18:13:06 71° WNW 18:15:25 37° NNE
Cosmos 2180 Rocket 4.4 18:07:53 10° S 18:14:12 74° E 18:17:45 28° NNE
Lacrosse 5 rocket 3.3 18:13:11 10° NW 18:14:43 19° NNW 18:14:43 19° NNW
NOSS 2-2 (D) 4.3 18:12:17 10° NW 18:17:30 87° SW 18:19:47 44° SE
Meteor 2-6 Rocket 4.1 18:11:44 10° S 18:17:22 71° ESE 18:17:22 71° ESE
Cosmos 1814 Rocket 4.3 18:14:24 10° SSW 18:18:31 54° S 18:18:31 54° S
CZ-4C R/B 2.8 18:13:56 10° NW 18:21:03 72° NE 18:23:06 52° ESE
H-2A R/B 4.2 18:23:44 10° SSW 18:28:01 25° W 18:32:15 10° NW
Cosmos 1666 Rocket 4.4 18:26:10 10° NNW 18:30:28 49° W 18:34:43 10° SSW
Cosmos 540 Rocket 4.4 18:28:42 10° SW 18:33:35 44° WNW 18:34:57 36° NNW
ISS -0.8 18:31:53 10° WNW 18:32:38 16° WNW 18:32:38 16° WNW
Cosmos 1833 Rocket 3.8 18:30:18 10° WSW 18:35:33 39° NW 18:37:45 28° N
Cosmos 1151 Rocket 4.3 18:31:32 10° SSW 18:34:31 38° SW 18:34:31 38° SW
Meteor 2-15 4.4 18:30:50 10° S 18:36:08 68° S 18:36:08 68° S
USA 267 4.2 19:11:44 36° NNW 19:11:44 36° NNW 19:16:53 10° WNW
COSMOS 2455 3.8 19:08:41 10° WSW 19:13:43 43° WNW 19:13:43 43° WNW
Cosmos 2322 Rocket 4.5 19:23:54 10° NNW 19:24:56 16° NNW 19:24:56 16° NNW
Cosmos 1980 Rocket 4.4 19:33:34 10° NW 19:37:36 20° W 19:38:33 19° WSW
Cosmos 2082 Rocket 4.4 19:44:22 10° WSW 19:47:04 21° WNW 19:47:04 21° WNW
CZ-4C R/B 4.3 20:02:52 10° NW 20:08:21 33° W 20:08:21 33° W
